Location: Unspecified
(48.7670°N, 0.0000°E)
Time: 13:46:59
(UTC+00:00)

Vanguard 2 Rocket - Pass Details

Date: 19 June 2019
Orbit: 554 x 3326 km, 32.9° (Epoch: 20 July)

Event Time Altitude Azimuth Distance (km) Brightness Sun altitude
Rises 02:36:18 0° 265° (W) 5,796 10.6 -9.9°
Reaches altitude 10° 02:40:01 10° 258° (WSW) 5,124 10.3 -9.6°
Maximum altitude 02:54:13 39° 198° (SSW) 4,105 9.8 -8.1°
Drops below altitude 10° 03:11:43 10° 139° (SE) 6,239 11.1 -6.2°
Sets 03:16:54 0° 132° (SE) 7,133 11.5 -5.7°
